Temp
-6 -6 -6 -6 -6 -6 -6 -6 -6 -6 -6 -6 -6 -6 -6 -6 -7 -7 -7 -6 -6 -6 -7 -7 -9 -10 -10 -9 -9 -9 -9 -9 -9 -9 -10 -10 -10 -10 -11 -10 -10 -11 -11 -11 -11
-6 -6 -6 -6 -6 -6 -6 -6 -6 -6 -6 -6 -6 -6 -6 -6 -7 -7 -7 -6 -6 -7 -7 -8 -10 -10 -9 -9 -9 -9 -9 -10 -9 -10 -11 -11 -10 -10 -11 -11 -11 -11 -11 -11 -11
-6 -6 -6 -6 -6 -6 -6 -6 -6 -6 -6 -6 -6 -6 -6 -6 -7 -7 -7 -6 -7 -7 -7 -9 -10 -10 -10 -10 -10 -10 -9 -10 -10 -10 -10 -11 -11 -11 -11 -11 -11 -11 -12 -11 -11
-6 -6 -7 -6 -6 -6 -6 -6 -6 -6 -6 -6 -6 -6 -7 -7 -7 -7 -7 -7 -7 -7 -8 -9 -10 -10 -10 -10 -10 -10 -10 -10 -10 -10 -10 -10 -11 -11 -11 -11 -11 -11 -12 -11 -11
-6 -7 -7 -7 -6 -6 -6 -6 -6 -6 -6 -7 -7 -7 -7 -7 -7 -7 -7 -7 -8 -8 -8 -9 -10 -10 -10 -10 -10 -10 -10 -10 -10 -10 -10 -10 -11 -11 -11 -11 -11 -11 -12 -11 -11
-7 -7 -7 -6 -6 -7 -7 -7 -7 -7 -7 -7 -7 -7 -7 -7 -7 -6 -6 -7 -7 -7 -7 -8 -10 -10 -10 -10 -10 -9 -10 -10 -10 -10 -10 -10 -11 -11 -11 -11 -11 -11 -12 -11 -12
-7 -7 -7 -7 -7 -7 -7 -7 -7 -7 -7 -7 -7 -7 -7 -7 -7 -7 -7 -7 -7 -7 -7 -9 -9 -10 -10 -10 -10 -10 -10 -10 -10 -10 -10 -10 -11 -11 -11 -11 -11 -11 -11 -11 -12
-7 -7 -7 -7 -7 -7 -7 -7 -7 -7 -8 -8 -8 -7 -7 -7 -7 -7 -7 -7 -8 -8 -8 -8 -9 -9 -10 -10 -9 -10 -10 -10 -10 -10 -10 -10 -10 -10 -11 -11 -11 -11 -12 -12 -12
-7 -7 -7 -7 -7 -7 -7 -8 -8 -8 -8 -8 -8 -7 -7 -7 -7 -8 -7 -8 -8 -8 -8 -9 -9 -10 -10 -10 -10 -10 -10 -10 -10 -10 -10 -11 -11 -11 -11 -11 -10 -11 -11 -12 -12
-7 -7 -7 -7 -7 -7 -8 -8 -8 -8 -8 -8 -8 -8 -7 -8 -8 -8 -8 -8 -8 -9 -9 -10 -10 -10 -10 -10 -10 -10 -10 -10 -10 -11 -11 -11 -11 -11 -11 -11 -11 -11 -11 -12 -12
-7 -7 -8 -8 -8 -7 -8 -8 -8 -7 -7 -8 -8 -8 -8 -8 -8 -8 -9 -9 -9 -9 -9 -10 -10 -10 -10 -10 -10 -10 -10 -10 -10 -11 -11 -11 -11 -11 -11 -11 -11 -11 -11 -12 -12
-8 -8 -8 -8 -8 -8 -8 -8 -8 -8 -7 -8 -8 -8 -8 -9 -9 -9 -8 -9 -9 -9 -9 -9 -9 -9 -9 -9 -10 -10 -10 -10 -10 -10 -10 -10 -10 -10 -10 -10 -10 -10 -11 -12 -12
-8 -8 -8 -8 -8 -8 -8 -8 -8 -8 -8 -8 -8 -8 -9 -9 -9 -9 -9 -8 -9 -9 -9 -9 -9 -9 -10 -10 -10 -10 -10 -9 -10 -10 -10 -9 -9 -9 -9 -10 -10 -11 -11 -12 -12
-8 -8 -8 -8 -8 -8 -8 -8 -8 -8 -8 -9 -9 -9 -9 -9 -9 -9 -9 -9 -9 -9 -9 -9 -9 -10 -10 -10 -10 -10 -10 -10 -9 -9 -9 -9 -9 -9 -10 -10 -11 -11 -11 -12 -12
-8 -8 -8 -8 -8 -8 -8 -8 -8 -8 -9 -9 -9 -9 -9 -9 -9 -9 -9 -9 -9 -9 -9 -9 -10 -10 -10 -10 -10 -10 -10 -10 -10 -9 -9 -9 -9 -10 -10 -11 -11 -11 -12 -12 -12
-8 -8 -8 -8 -8 -8 -8 -9 -8 -9 -9 -9 -9 -9 -9 -9 -9 -9 -9 -9 -9 -9 -9 -9 -10 -10 -10 -9 -10 -10 -10 -10 -10 -10 -10 -10 -10 -10 -10 -10 -11 -11 -12 -12 -12
-9 -8 -8 -8 -8 -8 -9 -8 -9 -9 -10 -9 -9 -9 -10 -10 -9 -9 -9 -9 -9 -9 -9 -9 -10 -10 -10 -10 -10 -10 -11 -10 -10 -10 -10 -11 -10 -10 -10 -11 -11 -12 -12 -12 -12
-9 -9 -8 -8 -8 -9 -9 -9 -9 -9 -10 -9 -8 -9 -9 -10 -10 -10 -9 -9 -9 -9 -9 -10 -10 -10 -10 -10 -11 -11 -10 -10 -10 -11 -11 -11 -10 -11 -11 -11 -12 -12 -12 -12 -12
-9 -9 -8 -9 -9 -9 -9 -9 -10 -10 -10 -10 -9 -9 -9 -10 -10 -10 -9 -9 -10 -10 -10 -10 -11 -10 -11 -11 -11 -11 -10 -10 -10 -10 -10 -10 -11 -11 -11 -11 -11 -11 -11 -12 -12
-9 -9 -9 -9 -9 -9 -9 -10 -10 -10 -10 -11 -10 -10 -10 -10 -10 -10 -10 -10 -10 -10 -10 -11 -11 -11 -11 -11 -11 -10 -10 -10 -10 -10 -10 -10 -11 -11 -11 -11 -12 -11 -12 -12 -13
-9 -9 -9 -9 -9 -9 -9 -9 -10 -10 -10 -11 -10 -10 -10 -10 -10 -10 -10 -10 -11 -11 -11 -11 -12 -12 -11 -11 -11 -11 -10 -10 -10 -10 -10 -10 -10 -11 -11 -11 -11 -12 -13 -13 -13
-10 -10 -10 -9 -9 -9 -10 -9 -9 -10 -11 -11 -11 -11 -10 -10 -11 -10 -10 -11 -11 -11 -11 -11 -12 -12 -12 -11 -12 -12 -12 -11 -10 -10 -10 -10 -10 -11 -11 -12 -12 -12 -13 -14 -14
-10 -10 -10 -10 -10 -10 -10 -10 -10 -11 -11 -11 -11 -11 -11 -10 -11 -11 -11 -11 -11 -11 -11 -11 -12 -12 -12 -12 -12 -12 -11 -11 -11 -11 -11 -11 -11 -11 -11 -12 -12 -13 -13 -13 -14
-10 -10 -10 -10 -10 -10 -10 -10 -11 -11 -11 -11 -11 -11 -11 -11 -11 -11 -11 -11 -12 -12 -12 -12 -12 -12 -12 -12 -12 -12 -12 -12 -12 -11 -11 -11 -11 -12 -12 -12 -12 -13 -14 -14 -14
-11 -10 -10 -10 -10 -10 -11 -11 -12 -11 -11 -12 -11 -12 -12 -12 -11 -12 -12 -12 -12 -12 -12 -12 -12 -12 -12 -12 -12 -12 -12 -12 -12 -12 -12 -12 -12 -12 -12 -13 -13 -13 -14 -14 -14
-11 -11 -11 -11 -11 -11 -11 -11 -11 -12 -12 -12 -11 -12 -12 -12 -12 -12 -12 -12 -12 -12 -12 -12 -11 -12 -12 -12 -12 -12 -12 -12 -12 -12 -12 -12 -12 -13 -13 -13 -13 -14 -14 -14 -14
-11 -11 -11 -11 -11 -11 -11 -11 -11 -12 -11 -11 -12 -12 -12 -12 -12 -12 -12 -12 -12 -12 -12 -11 -11 -11 -12 -12 -13 -12 -12 -13 -13 -12 -12 -12 -13 -13 -13 -14 -14 -14 -14 -14 -14
Height
5885 5887 5888 5890 5892 5893 5895 5897 5898 5899 5899 5900 5901 5902 5903 5903 5905 5905 5905 5906 5907 5908 5910 5911 5914 5915 5917 5919 5919 5919 5920 5920 5920 5919 5917 5917 5916 5915 5915 5915 5913 5913 5911 5907 5904
5883 5886 5887 5890 5891 5893 5895 5896 5898 5899 5899 5900 5901 5901 5902 5904 5905 5906 5906 5906 5907 5909 5911 5912 5914 5916 5917 5918 5919 5920 5920 5920 5920 5919 5917 5917 5916 5915 5916 5915 5914 5914 5912 5909 5905
5882 5884 5886 5889 5890 5893 5894 5896 5897 5898 5899 5899 5900 5901 5902 5903 5905 5906 5906 5907 5908 5909 5911 5913 5915 5915 5916 5918 5919 5920 5920 5919 5919 5919 5918 5917 5917 5916 5916 5915 5915 5915 5913 5910 5907
5880 5883 5886 5888 5890 5892 5893 5895 5897 5897 5898 5898 5899 5900 5901 5902 5905 5905 5905 5906 5908 5910 5911 5912 5913 5915 5916 5918 5919 5920 5919 5919 5919 5919 5919 5917 5918 5917 5916 5916 5915 5915 5914 5910 5907
5879 5881 5885 5886 5889 5891 5892 5894 5895 5896 5896 5897 5898 5899 5901 5902 5904 5905 5906 5906 5908 5909 5910 5912 5914 5915 5917 5918 5919 5920 5919 5919 5918 5919 5918 5918 5918 5917 5916 5915 5914 5914 5913 5910 5907
5878 5880 5883 5885 5887 5889 5890 5892 5894 5894 5895 5896 5897 5899 5901 5902 5904 5905 5906 5906 5907 5909 5911 5912 5914 5915 5918 5918 5919 5920 5919 5919 5917 5917 5917 5918 5918 5917 5916 5915 5914 5913 5912 5909 5905
5876 5879 5881 5883 5885 5887 5888 5890 5892 5892 5893 5894 5896 5898 5900 5901 5902 5904 5906 5907 5908 5910 5911 5913 5914 5917 5918 5918 5919 5919 5918 5917 5917 5917 5917 5917 5917 5916 5916 5916 5914 5912 5910 5908 5904
5875 5877 5878 5881 5883 5885 5886 5889 5890 5890 5891 5893 5895 5896 5898 5899 5900 5902 5905 5908 5909 5911 5912 5914 5915 5917 5918 5920 5920 5919 5919 5918 5917 5917 5917 5916 5914 5915 5914 5913 5914 5913 5909 5906 5903
5873 5875 5877 5879 5881 5883 5885 5887 5889 5889 5890 5892 5894 5895 5897 5898 5900 5902 5905 5908 5910 5911 5912 5915 5916 5917 5919 5919 5919 5919 5919 5919 5919 5919 5917 5915 5913 5912 5912 5913 5912 5911 5909 5905 5901
5870 5872 5875 5877 5879 5881 5883 5886 5887 5888 5890 5892 5893 5895 5897 5898 5899 5901 5904 5906 5909 5910 5912 5914 5916 5917 5917 5918 5919 5919 5919 5918 5917 5917 5915 5913 5911 5911 5912 5911 5910 5908 5907 5903 5899
5867 5870 5873 5875 5876 5879 5882 5885 5887 5889 5890 5892 5893 5894 5896 5897 5898 5900 5903 5905 5907 5910 5912 5914 5916 5915 5916 5918 5918 5917 5917 5916 5915 5913 5912 5911 5908 5907 5907 5906 5906 5905 5904 5901 5896
5865 5868 5870 5872 5874 5878 5880 5883 5886 5888 5889 5890 5892 5893 5895 5898 5900 5902 5904 5907 5908 5909 5911 5913 5914 5915 5916 5917 5916 5916 5915 5913 5912 5910 5909 5907 5905 5904 5903 5903 5902 5901 5900 5897 5894
5863 5866 5868 5870 5872 5876 5879 5883 5885 5886 5887 5889 5890 5892 5895 5897 5899 5901 5903 5905 5907 5909 5912 5913 5915 5915 5915 5915 5915 5914 5913 5911 5909 5908 5905 5903 5903 5902 5901 5900 5899 5897 5895 5893 5891
5860 5862 5865 5868 5872 5875 5879 5881 5883 5884 5886 5888 5889 5892 5894 5896 5899 5901 5903 5907 5907 5910 5912 5913 5913 5913 5913 5913 5912 5911 5910 5908 5906 5905 5901 5899 5900 5899 5898 5897 5895 5894 5893 5890 5888
5858 5861 5863 5865 5869 5875 5878 5880 5880 5882 5884 5886 5887 5890 5892 5895 5899 5901 5902 5905 5907 5908 5911 5912 5910 5910 5910 5910 5910 5909 5908 5905 5904 5901 5899 5898 5897 5897 5896 5895 5895 5893 5890 5886 5884
5855 5858 5860 5863 5869 5873 5876 5876 5879 5882 5882 5885 5887 5889 5892 5894 5896 5899 5902 5904 5905 5906 5908 5908 5908 5909 5908 5908 5908 5908 5906 5902 5901 5898 5897 5896 5895 5894 5893 5892 5890 5888 5884 5881 5879
5852 5855 5858 5863 5867 5871 5873 5875 5878 5879 5880 5882 5883 5887 5890 5893 5896 5899 5901 5902 5903 5904 5905 5906 5905 5906 5905 5906 5905 5905 5904 5902 5899 5897 5895 5894 5892 5891 5889 5888 5886 5883 5880 5876 5874
5849 5852 5856 5861 5864 5867 5869 5872 5874 5875 5877 5880 5882 5884 5887 5891 5894 5896 5899 5901 5902 5902 5903 5904 5904 5904 5903 5903 5903 5902 5901 5899 5896 5894 5893 5891 5890 5888 5885 5884 5882 5878 5875 5872 5868
5846 5849 5853 5857 5861 5863 5866 5868 5870 5873 5877 5880 5882 5884 5886 5889 5892 5893 5896 5898 5899 5900 5901 5901 5902 5902 5901 5901 5902 5899 5897 5896 5893 5892 5890 5888 5886 5885 5883 5880 5877 5873 5870 5866 5859
5841 5846 5851 5854 5857 5859 5862 5864 5867 5871 5874 5879 5880 5883 5885 5887 5890 5892 5894 5896 5897 5898 5899 5899 5899 5900 5899 5898 5898 5897 5895 5892 5890 5888 5886 5885 5882 5881 5878 5875 5871 5867 5864 5858 5854
5838 5842 5847 5850 5853 5855 5858 5860 5863 5868 5871 5876 5878 5880 5883 5886 5888 5890 5892 5894 5895 5896 5897 5897 5897 5899 5898 5897 5895 5893 5890 5888 5887 5885 5882 5880 5879 5874 5872 5870 5865 5862 5858 5854 5850
5834 5839 5843 5846 5850 5852 5855 5858 5861 5864 5868 5872 5875 5877 5880 5882 5885 5887 5889 5891 5893 5894 5894 5895 5895 5895 5895 5894 5892 5890 5888 5885 5884 5883 5879 5876 5876 5872 5867 5862 5859 5856 5853 5848 5844
5830 5834 5838 5842 5845 5848 5852 5855 5857 5860 5863 5867 5870 5873 5877 5879 5882 5884 5886 5889 5890 5891 5892 5893 5892 5892 5892 5892 5889 5887 5884 5881 5879 5876 5875 5872 5870 5866 5864 5860 5855 5851 5848 5843 5838
5826 5830 5834 5837 5841 5845 5849 5852 5852 5857 5860 5862 5866 5869 5873 5876 5878 5880 5882 5885 5887 5888 5887 5888 5889 5888 5887 5886 5885 5884 5881 5878 5875 5873 5871 5870 5865 5863 5858 5854 5850 5846 5842 5837 5832
5820 5825 5829 5834 5837 5841 5845 5849 5850 5853 5857 5859 5861 5865 5869 5873 5875 5877 5880 5881 5883 5883 5883 5883 5883 5882 5880 5879 5878 5877 5875 5872 5870 5868 5866 5864 5860 5856 5852 5849 5845 5841 5837 5832 5826
5814 5820 5825 5829 5832 5836 5840 5843 5846 5847 5852 5855 5857 5860 5865 5869 5872 5874 5876 5878 5878 5879 5878 5877 5875 5875 5874 5873 5871 5869 5868 5867 5865 5863 5860 5856 5852 5849 5846 5843 5839 5834 5829 5826 5820
5809 5814 5818 5823 5827 5830 5834 5838 5841 5844 5847 5851 5854 5856 5860 5864 5867 5869 5871 5872 5873 5873 5872 5872 5870 5870 5869 5866 5864 5863 5862 5860 5858 5857 5854 5851 5848 5844 5840 5836 5832 5827 5823 5818 5814
Wind_Speed
15 15 16 15 13 12 11 9 7 5 4 4 5 7 10 9 8 7 8 7 3 3 3 4 10 14 13 10 6 5 6 4 10 18 23 22 25 27 25 25 24 24 25 26 27
15 16 17 15 13 12 11 10 7 5 4 4 5 8 11 10 8 8 8 7 4 3 5 7 14 15 11 7 3 2 3 7 12 19 22 22 26 28 29 27 26 24 24 23 25
16 17 18 15 13 12 11 10 8 7 6 5 5 9 13 11 8 8 9 8 5 4 7 9 11 12 10 4 2 4 5 8 14 14 13 19 24 24 27 25 29 25 21 20 19
17 18 18 16 14 13 12 11 10 9 8 7 6 8 12 12 9 8 11 10 7 8 11 12 13 9 7 3 2 2 7 12 9 12 13 18 19 20 25 26 25 23 16 20 18
17 17 18 16 15 14 13 13 11 10 9 8 7 7 10 13 11 10 12 12 13 14 13 16 16 14 9 6 5 1 3 6 6 6 11 13 16 18 23 28 28 20 15 19 23
18 17 16 15 14 14 13 12 12 11 10 9 9 8 8 10 10 10 14 15 16 15 14 17 20 17 11 13 11 10 5 5 4 5 9 10 13 16 20 29 30 15 14 19 24
17 16 15 15 14 13 12 11 11 11 11 11 10 9 9 10 10 10 14 15 12 9 9 19 21 16 14 16 5 2 6 5 6 7 7 9 13 16 20 25 27 13 14 17 22
18 16 15 15 15 12 11 10 10 10 12 12 11 10 10 11 11 12 14 13 9 9 8 11 14 15 18 14 13 3 3 8 10 10 8 13 16 18 22 26 25 15 15 18 21
18 17 16 16 13 11 12 11 11 11 12 12 12 11 10 12 12 11 12 11 11 10 7 8 10 17 17 18 18 8 8 6 5 9 15 17 18 20 22 28 24 18 18 20 23
19 18 18 16 14 13 14 14 12 11 10 12 12 11 10 12 14 11 13 11 9 7 7 10 19 23 24 21 14 10 14 10 5 10 14 18 20 22 26 28 27 27 21 21 22
18 18 18 16 14 15 15 15 13 8 10 10 9 8 11 14 15 16 16 14 12 11 12 14 21 22 18 19 13 12 14 14 14 15 19 22 26 28 29 31 28 29 19 17 21
19 19 18 17 16 16 16 15 9 8 10 9 8 9 10 10 13 15 17 18 18 15 14 16 18 17 17 15 15 15 16 16 17 18 21 25 27 29 30 28 25 22 16 17 21
20 19 19 18 17 17 13 11 9 7 6 8 8 13 14 15 18 19 17 15 13 14 16 17 16 16 15 17 16 22 23 17 19 20 22 23 21 22 22 22 19 17 17 18 22
19 18 19 19 18 14 10 9 10 11 11 11 13 14 14 14 15 13 13 13 15 18 14 13 15 17 18 18 21 16 16 20 19 19 23 24 23 21 19 19 18 19 18 21 24
20 20 20 19 16 12 10 8 13 14 13 15 16 16 13 14 14 16 18 18 16 15 13 14 16 18 19 20 12 15 18 20 20 17 18 19 21 19 19 20 20 19 22 27 29
21 20 19 20 14 14 11 15 14 15 14 13 14 14 15 17 18 19 18 16 15 16 12 14 17 16 15 15 11 11 15 14 20 18 17 18 21 21 23 23 22 22 29 31 32
21 21 21 17 14 16 14 16 16 17 17 18 20 19 17 15 13 15 16 16 18 17 14 15 17 16 17 10 11 11 12 18 14 14 15 15 17 22 24 22 24 29 34 35 36
22 22 20 17 16 16 17 18 19 23 22 19 19 22 21 18 14 17 17 18 16 16 14 15 16 17 17 13 16 16 16 19 15 12 13 19 24 21 22 24 27 30 32 33 33
24 23 21 19 19 22 21 20 24 23 23 19 19 20 21 21 18 17 16 16 15 12 11 13 15 15 17 17 15 20 20 15 16 17 17 20 20 19 21 24 27 29 30 29 32
24 23 22 21 22 25 24 24 25 25 25 21 21 19 20 21 20 19 16 15 11 8 9 10 12 11 14 16 17 15 14 16 16 19 20 19 21 22 25 27 29 29 28 28 30
24 23 22 22 25 27 26 28 28 27 28 26 24 22 19 20 18 17 17 16 11 8 6 8 11 12 14 14 17 19 21 21 20 21 24 26 26 30 30 30 30 29 25 24 28
25 24 23 25 26 27 27 28 29 29 29 28 27 25 22 20 18 18 17 14 12 10 10 11 13 15 17 18 20 23 26 27 25 23 25 27 29 29 33 37 38 33 25 27 30
26 25 25 26 26 26 28 29 33 33 32 30 30 28 24 20 19 15 15 14 13 14 13 13 17 20 22 21 23 26 28 28 27 28 29 32 34 34 35 36 33 31 29 33 34
27 26 25 27 27 26 27 31 38 37 37 33 31 31 27 23 19 19 18 19 19 20 22 23 23 26 28 27 27 29 29 29 27 29 31 32 36 35 35 28 26 29 32 36 38
29 27 26 26 27 28 28 33 43 39 38 37 35 35 32 28 24 25 25 25 26 28 30 32 32 32 32 32 31 30 30 29 28 29 33 37 38 33 24 24 28 31 34 33 29
31 29 27 27 28 29 29 32 41 49 42 41 40 38 36 33 31 29 28 29 31 32 35 37 38 37 37 36 35 36 32 32 33 36 37 38 33 25 26 31 33 37 37 35 32
34 32 30 29 30 31 32 32 34 38 43 44 45 44 41 38 37 35 34 34 36 37 39 39 38 37 36 37 38 35 34 36 37 36 36 30 24 27 30 31 34 35 37 37 37
Wind_Direction
214 210 201 204 200 195 193 190 192 201 205 209 204 190 187 185 190 193 212 232 227 207 162 177 145 152 157 176 145 102 80 54 47 55 52 45 50 45 34 25 33 30 23 7 8
211 208 200 205 201 195 197 200 205 222 234 229 216 199 193 194 193 191 210 224 215 198 177 171 154 166 193 233 231 128 43 55 53 58 57 43 46 39 29 26 29 20 19 6 6
207 205 202 204 200 203 203 213 218 236 247 249 220 204 196 196 193 194 203 212 211 178 192 168 181 205 230 253 178 52 25 45 50 51 61 40 37 32 27 29 30 20 19 18 19
202 201 205 205 204 211 214 225 234 243 249 248 227 203 194 195 194 194 203 191 196 180 187 176 188 196 218 192 245 17 25 33 51 77 37 28 22 20 19 23 22 26 26 24 24
200 202 208 208 214 221 224 233 238 242 245 238 226 203 198 200 204 207 200 188 189 188 201 193 191 209 212 194 230 256 24 43 11 38 33 16 2 12 11 23 12 33 25 27 32
199 203 208 211 218 224 228 236 240 240 237 229 220 203 199 208 214 216 203 197 201 200 214 214 203 220 210 216 231 282 285 8 339 338 12 2 348 359 4 12 7 25 24 23 28
203 204 210 214 217 222 231 237 238 233 229 225 220 207 203 215 216 208 196 203 207 201 226 209 215 223 237 231 263 322 307 306 303 290 335 330 329 339 348 360 3 359 13 17 22
209 214 215 219 217 220 228 230 227 223 220 220 220 210 212 215 206 193 188 186 168 188 187 217 226 239 235 239 255 240 282 295 289 323 317 323 321 339 344 345 350 358 5 12 17
220 217 215 216 213 220 225 218 217 222 221 219 221 215 215 206 192 180 190 174 179 207 190 205 233 232 238 254 256 222 245 27 293 300 319 323 321 328 331 331 346 357 350 359 360
215 216 215 213 214 223 222 215 220 230 234 224 221 225 217 204 189 177 178 166 181 190 189 213 224 235 253 246 234 237 246 253 279 308 310 315 313 310 313 322 330 330 332 340 348
209 212 215 214 217 227 223 220 224 231 236 235 226 217 215 211 195 178 174 170 180 197 210 210 230 233 244 229 233 255 256 259 272 287 299 302 300 302 308 315 315 312 315 325 342
209 211 214 216 222 227 225 225 218 246 236 230 222 211 201 200 194 187 188 185 195 203 210 219 228 237 248 246 234 259 261 272 284 286 288 289 294 299 304 306 304 303 303 315 324
209 210 214 219 224 226 226 223 216 242 225 213 211 206 192 190 190 192 198 210 202 208 219 234 250 256 259 263 260 270 273 280 286 287 291 292 298 303 306 309 313 305 306 309 311
208 210 217 222 225 222 219 210 221 223 203 202 205 205 200 192 195 198 205 211 209 217 236 252 255 261 268 263 276 277 287 290 297 297 292 299 305 311 316 318 308 297 302 300 298
210 213 218 220 221 210 204 205 217 218 204 207 200 195 195 186 192 197 206 214 223 234 231 248 256 265 270 273 268 293 303 300 306 305 301 301 305 310 309 309 305 302 301 302 302
211 212 218 225 214 204 197 217 214 210 205 201 199 194 193 189 198 202 210 220 233 241 239 248 260 265 270 280 294 299 323 310 306 310 300 303 307 307 309 308 302 297 304 308 308
211 212 217 218 209 204 202 215 208 202 206 198 190 187 183 192 208 221 219 223 236 247 253 254 266 278 286 304 294 307 311 316 317 299 295 300 304 311 310 306 303 302 305 304 304
211 214 216 211 204 200 203 208 202 206 205 210 210 201 189 189 196 215 216 224 235 253 263 270 273 290 298 299 302 305 302 311 306 289 290 298 305 311 305 303 299 299 299 307 311
213 214 213 206 202 206 205 200 205 207 208 211 214 213 204 194 197 214 220 225 232 245 269 281 281 286 287 291 292 303 304 303 297 299 301 304 308 315 312 310 305 307 312 321 320
215 216 214 211 206 212 209 197 207 206 211 206 213 219 217 210 203 214 221 227 223 246 261 278 271 281 287 297 301 298 308 309 312 315 316 316 315 316 315 318 317 318 323 322 325
218 217 213 213 214 217 212 206 209 206 213 210 217 217 220 220 213 213 227 228 223 241 260 292 280 280 285 300 317 326 323 316 315 316 314 318 324 323 323 321 320 326 324 324 327
221 218 212 216 217 221 213 216 220 210 215 211 218 224 225 225 221 219 231 247 248 260 271 287 284 290 298 303 312 316 313 306 306 312 311 312 318 320 324 326 327 324 327 328 325
222 219 214 217 217 219 214 219 222 214 216 217 218 221 231 239 240 240 241 244 257 266 267 280 284 294 300 294 296 301 309 308 308 308 311 314 320 319 322 321 322 324 323 320 325
225 221 220 219 220 219 217 217 220 217 215 225 228 232 233 242 254 257 257 263 270 276 280 283 287 291 292 291 293 297 301 302 298 304 304 309 312 315 318 316 320 321 317 313 311
227 225 223 222 224 222 215 212 216 225 225 227 235 233 231 233 242 248 258 261 268 275 278 282 285 288 291 296 298 298 296 299 292 304 305 310 312 313 309 310 317 316 317 324 319
230 228 226 223 225 225 220 215 217 228 230 230 235 237 237 235 242 248 260 260 266 273 278 282 285 288 290 294 297 298 295 293 294 301 309 313 315 316 317 316 314 309 315 316 314
233 232 226 225 225 227 226 221 222 227 235 235 236 239 243 241 248 255 262 266 268 270 273 275 278 281 286 291 292 291 291 293 298 306 310 313 313 315 317 314 311 310 306 309 316